User: anonymous   Login
Location: Caltech
(34.1382°N, 118.1253°W)
Time: 17:13:08
(UTC-07:00)
Language:

JAS-1B - Orbit

View from above orbital plane
View from above orbital plane
View from above satellite
View from above satellite

Ground track
Ground track

The orbit data is extracted from the following two-line orbital elements,

1 20480U 90013C   17176.58835986 -.00000038 +00000-0 -12711-4 0  9990
2 20480 099.0568 308.1853 0540417 012.0475 349.2977 12.83415557282757
Epoch (UTC): 25 June 2017 14:07:14
Eccentricity: 0.0540417
inclination: 99.0568°
perigee height: 911 km
apogee height: 1744 km
right ascension of ascending node: 308.1853°
argument of perigee: 12.0475°
revolutions per day: 12.83415557
mean anomaly at epoch: 349.2977°
orbit number at epoch: 28275

The dashed part of the orbit path shows where the satellite is in the earth's shadow,  

DLR